Theta_e
321 321 320 320 319 319 319 319 318 318 319 319 318 317 317 317 317 319 318 317 315 311
320 320 319 319 318 319 320 319 316 318 318 319 318 318 318 317 318 316 316 315 313 309
317 318 319 317 317 319 320 318 314 316 317 318 318 319 319 319 317 315 314 313 311 306
313 314 315 317 317 318 318 317 318 317 318 318 318 319 318 317 316 310 312 308 306 307
315 314 314 315 317 319 320 320 320 319 318 318 318 318 315 314 311 309 308 308 302 302
308 309 310 314 316 315 316 318 315 316 316 316 314 312 310 311 308 305 304 303 299 300
297 298 300 302 303 304 306 309 308 307 306 305 304 304 303 302 301 299 298 297 296 295
295 296 297 296 298 297 297 298 299 299 298 299 299 299 298 297 296 294 294 292 292 291
292 291 290 291 291 292 292 293 291 293 292 292 295 295 295 295 294 292 291 290 289 288
289 288 288 287 287 287 287 288 290 290 290 290 289 292 294 293 290 290 289 288 287 286
287 287 286 286 286 285 286 287 288 287 288 288 287 290 292 291 289 288 288 287 286 286
286 283 283 281 281 286 286 285 285 285 285 285 285 289 291 289 286 286 286 286 286 286
284 282 282 282 281 283 285 283 282 284 282 281 281 288 291 289 285 284 284 284 285 284
279 279 279 277 277 278 279 281 276 277 277 279 280 282 290 291 285 285 282 284 283 284
Wind_Speed
14 11 11 11 9 9 9 9 7 9 11 12 10 10 9 9 10 11 11 15 13 9
12 13 12 12 9 10 9 8 8 9 11 12 11 12 11 10 13 10 11 12 12 10
13 13 13 8 11 12 11 9 8 9 11 11 12 13 13 12 12 12 10 10 10 8
8 8 8 11 11 11 9 8 11 12 12 13 13 13 12 13 12 12 13 8 10 13
8 10 12 12 12 10 12 11 13 12 12 12 12 11 12 13 9 11 11 10 7 9
5 6 6 6 5 6 6 8 7 8 11 11 9 8 8 8 6 7 7 6 6 7
3 3 3 3 4 4 4 4 3 2 2 2 2 0 2 4 4 4 4 4 5 6
2 3 4 5 5 5 5 5 5 5 5 4 2 1 3 3 4 3 3 1 1 1
5 6 6 5 5 5 5 5 4 6 4 5 3 5 3 3 2 3 3 3 3 5
5 5 5 5 5 5 5 3 4 4 3 3 3 4 5 5 2 2 3 4 4 4
5 6 5 5 5 4 3 4 3 4 5 4 3 5 6 3 3 2 3 4 5 6
5 5 5 5 4 4 3 2 3 2 2 1 2 2 3 5 4 4 3 4 5 5
6 6 7 6 6 3 3 3 3 2 1 1 2 5 2 5 2 3 1 1 2 5
4 4 4 3 4 3 2 4 4 4 3 3 3 5 6 5 1 1 1 2 2 3
Wind_Direction
211 214 219 216 215 220 219 221 208 203 215 219 217 215 213 222 226 228 229 232 227 221
209 213 217 216 206 218 218 218 201 203 208 218 217 219 217 226 232 221 227 234 230 222
210 212 219 207 214 215 219 210 198 203 210 216 219 221 221 231 234 232 231 233 233 238
202 203 205 215 217 220 215 203 208 208 211 218 222 224 225 231 229 219 236 228 228 241
195 195 207 216 221 210 217 214 216 215 218 225 229 229 221 228 224 225 238 245 231 241
224 213 219 224 224 223 218 223 212 214 221 227 224 220 224 237 232 226 237 229 216 243
255 269 294 322 332 331 334 327 326 346 24 43 12 331 258 247 243 235 233 212 207 195
92 82 73 64 54 46 39 35 33 45 30 28 18 243 233 231 233 236 250 239 139 151
62 61 64 58 49 54 52 52 49 46 33 6 352 344 309 283 260 230 201 207 165 139
117 112 101 98 92 82 83 87 76 58 42 2 2 343 303 262 245 232 223 195 174 158
127 126 117 105 102 105 98 82 67 49 22 5 13 342 326 289 173 195 219 208 194 178
129 121 119 113 127 121 113 117 134 160 144 168 252 278 254 161 166 182 198 194 186 189
158 156 152 160 160 154 149 157 148 125 43 323 319 323 252 162 122 140 151 242 227 211
64 65 54 54 22 35 48 72 47 49 16 18 3 331 317 193 345 99 111 229 217 224